Location: ????????
(55.0559°N, 39.1270°E)
Time: 00:39:43
(UTC+00:00)

Cosmos 304 Rocket - Pass Details

Date: 15 November 2025
Orbit: 668 x 677 km, 74.0° (Epoch: 12 December)

Event Time Altitude Azimuth Distance (km) Brightness Sun altitude
Exits shadow 02:41:42 39° 264° (W) 1,025 4.1 -18.8°
Maximum altitude 02:42:01 39° 254° (WSW) 1,015 4.2 -18.8°
Drops below altitude 10° 02:46:26 10° 186° (S) 2,112 6.3 -18.2°
Sets 02:48:50 0° 178° (S) 3,023 7.2 -17.8°
